826  
ASUS44 KCRP 281010  
HRRCRP  
 
SOUTH TEXAS REGIONAL WEATHER ROUNDUP  
NATIONAL WEATHER SERVICE CORPUS CHRISTI TX  
500 AM CDT SUN MAY 28 2017  
 
TXZ229>244-281100-   
..CORPUS CHRISTI AREA OBSERVATIONS
 
 
 
CITY SKY/WX TMP DP RH WIND PRES REMARKS  
CORPUS CHRISTI MOCLDY 79 77 94 S12 29.77F  
NAS CORPUS CHR CLOUDY 82 79 90 S16G24 29.77F HX 92  
ROCKPORT MOCLDY 81 75 82 S9G23 29.77F  
KINGSVILLE NAS PTCLDY 79 78 97 S13 29.77F  
ALICE CLOUDY 79 76 90 S14G22 29.76F  
ORANGE GROVE CLOUDY 80 78 94 S15G23 29.77F  
FALFURRIAS MOCLDY 79 76 92 SE9 29.77F  

 
   
..VICTORIA AREA OBSERVATIONS
 
 
 
CITY SKY/WX TMP DP RH WIND PRES REMARKS  
VICTORIA CLOUDY 78 75 90 S7 29.80S  
BEEVILLE MOCLDY N/A N/A N/A S14 29.76F  
PLEASANTON CLOUDY 75 73 92 CALM 29.80R  
SAN ANTONIO CLOUDY 75 72 90 SW5 29.82S  

 
   
..LAREDO AREA OBSERVATIONS
 
 
 
CITY SKY/WX TMP DP RH WIND PRES REMARKS  
LAREDO PTCLDY 79 74 84 S15 29.75F  
COTULLA PTCLDY 78 72 81 CALM 29.78S  
DEL RIO CLEAR 78 73 84 E10 29.77F  
MCALLEN CLOUDY 82 77 84 SE14 29.79F HX 90  
HEBBRONVILLE CLOUDY 76 74 93 S13 29.78F FOG  

 
   
..OTHER TEXAS OBSERVATIONS
 
 
 
CITY SKY/WX TMP DP RH WIND PRES REMARKS  
BROWNSVILLE CLOUDY 83 78 85 S12 29.82S HX 93  
HOUSTON MOCLDY 80 74 81 S8 29.82F  
COL. STATION CLOUDY 77 75 93 S8 29.83R  
AUSTIN CLOUDY 77 74 90 CALM 29.82R  
WACO CLEAR 75 72 90 S14 29.80R  
FORT WORTH TSTM 75 67 76 E10 29.81R  
WICHITA FALLS PTCLDY 70 61 73 N17 29.89R  
LUBBOCK CLEAR 58 46 64 N15 30.08R  
EL PASO MOCLDY 68 14 12 E9 30.01R  

 
   
..MARINE OBSERVATIONS
 
 
 
STATION/POSITION TIME SKY/WX TEMP WIND PRES VSBY WAVE SWELL  
AIR SEA DIR/SP/G HT/PER HT/PER  
(UTC) (F) (DEG/KT/KT) (MB) (MI) (FT/S) (FT/S)  
PORT ARANSAS 0900 80 81 170/ 15/ 17 1009.1F  
BUOY 90 E PORT A 0950 80 79 170/ 12/ 16 1010.3F 4/ 6 2/ 6  
BUOY 45 SE BAFFI 0950 81 180/ 16/ 17 1008.8F 5/ 7  
BUOY 200 E PT IS 0950 80 81 150/ 19/ 21 1010.9F 4/ 6  
BUOY 15 E GALVES 0950 80 79 200/ 16/ 19 1010.7F 4/ 4  

 
 
 
CLICK HERE TO GO TO PREVIOUS BULLETINS.

The Nexlab TX Page Main Text Page